Location: Wismar
(53.8979°N, 11.4516°E)
Time: 01:56:33
(UTC+01:00)

ISS - Visible Passes

Search period start: 31 January 2023 00:00
Search period end: 10 February 2023 00:00
Orbit: 413 x 419 km, 51.6° (Epoch: 30 January)

Date Brightness Start Highest point End Pass type
(mag) Time Alt. Az. Time Alt. Az. Time Alt. Az.
31 Jan -2.7 17:43:03 10° W 17:46:18 44° SSW 17:49:32 10° ESE visible
31 Jan -1.3 19:20:15 10° WSW 19:22:28 17° SW 19:23:38 14° S visible
01 Feb -1.5 18:31:16 10° W 18:33:57 22° SSW 18:36:39 10° SSE visible
02 Feb -1.8 17:42:24 10° W 17:45:23 29° SSW 17:48:22 10° SE visible
03 Feb -0.7 18:31:18 10° WSW 18:32:48 12° SW 18:34:18 10° SSW visible
04 Feb -0.8 17:41:55 10° WSW 17:44:15 18° SSW 17:46:33 10° S visible
